Location: Bamazo
(6.7448°N, 10.8189°W)
Time: 16:57:36
(UTC+00:00)

Meteor 1-23 Rocket - Pass Details

Date: 18 September 2020
Orbit: 835 x 890 km, 81.3° (Epoch: 24 October)

Event Time Altitude Azimuth Distance (km) Brightness Sun altitude
Rises 18:56:37 0° 0° (N) 3,381 7.4 -4.7°
Reaches altitude 10° 18:59:03 10° 4° (N) 2,444 6.6 -5.3°
Maximum altitude 19:04:31 64° 85° (E) 923 4.2 -6.6°
Drops below altitude 10° 19:09:59 10° 166° (SSE) 2,443 6.4 -8.0°
Sets 19:12:25 0° 169° (SSE) 3,380 7.2 -8.6°
